Location: Althorst
(53.6379°N, 10.7715°E)
Time: 14:24:47
(UTC+00:00)

Cosmos 2333 Rocket - Pass Details

Date: 10 December 2019
Orbit: 837 x 865 km, 70.8° (Epoch: 18 January)

Event Time Altitude Azimuth Distance (km) Brightness Sun altitude
Rises 15:46:57 0° 192° (SSW) 3,414 6.0 -6.9°
Reaches altitude 10° 15:49:27 10° 188° (S) 2,486 5.2 -7.3°
Maximum altitude 15:54:58 52° 113° (ESE) 1,064 2.5 -8.0°
Drops below altitude 10° 16:00:33 10° 39° (NE) 2,515 4.1 -8.7°
Enters shadow 16:01:04 - 38° (NE) 2,704 4.3 -8.8°
